STARLINK-1569, 46039

Orbit data source: Space-Track

STARLINK-1569, 46039 is a payload satellite owned by SpaceX/Seattle (US) in LEO that was launched on Fri, 07 Aug 2020 UTC via an FALCON 9 launch vehicle from the Air Force Eastern Test Range (AFETR). Payload-class satellites include a variety of spacecraft equipped with specific instruments for various scientific and technological missions. These include communications satellites like Starlink; space stations such as the ISS; scientific satellites like the Hubble; Earth observation satellites from companies like Planet Labs, Umbra, and HawkEye 360; GPS; miniature CubeSats for education and research; and military/defense satellites.

Loading next visibility...
Identifier
46039, 2020-055N
Orbit
LEO
Country
Flag of USUS
Related business
Manufacturer
SpaceX/Seattle
Mission
Operational Commercial Communications
Bus & Motor
STARLINK, Unknown motor
Mass
260 kg wet, ~248 kg dry
Launch date (UTC)
2020-08-07 (6 years ago)
Launch vehicle
FALCON 9
Launch site
Air Force Eastern Test Range (AFETR)
Object type
Payload
Rocket body
Debris
Shape & HBR
Box + 1 Pan, 10.1 m
Radar Cross Section
13.562 m², Large (>1 m²)

Expand to show TLE details & history
Last TLE update: 9 hours ago

TLE from 9 hours ago
0 STARLINK-1569
1 46039U 20055N   26263.43240847 -.00000936  00000-0 -18360-4 0  9997
2 46039  53.1613 301.1189 0002485  39.7959 320.3224 15.31693388338712
Epoch: 2026-09-20T10:22Z
TLE epoch observation values (Epoch: 2026-09-20T10:22:40.091Z)
Latitude
-0.00007°
Longitude
146.12513°
Altitude
470.35 km
Speed
7.633 km/s
True Right ascension
20h 04m 28s
True Declination
0° 00' 00"
Sunlit
Object was in full shadow at epoch
Visualization orbit readout
Latitude
Unknown
Longitude
Unknown
Altitude
Unknown
Speed
Unknown
Apparent Right ascension
Unknown
Apparent Declination
Unknown
Sunlit
N/A
Visualization observer readout
Local Sidereal Time
12:12:46
Azimuth
Unknown
Elevation
Unknown
Doppler factor
Unknown
Orbital elements
Apogee altitude
472.718 km
Perigee altitude
469.314 km
Semi-major axis
6,849.153 km
Eccentricity
0.00025
Inclination
53.1613°
RAAN
301.1189°
Arg. of periapsis
39.7959°
True anomaly
320.30421°
Mean anomaly
320.3224°
Eccentric anomaly
320.31331°
Mean motion
3.82902 °/min
Orbital period
94.02 mins
BSTAR
-0.00001836
Loading maneuver chart data...
Computing Atmospheric mass density...

Documentation

Showing up to 5 results
|